Notices

Please take our survey and provide feedback: https://eccc.sondage-survey.ca/f/LanguageSelection.aspx?s=442ca660-fcf1-47c0-95a9-59707d6fd709

Please note that for the Engineering Climate Datasets, IDF dataset is available through this link.  Intensity-Duration-Frequency (IDF) Files: Includes the latest version of short-duration rainfall Intensity-Duration-Frequency (IDF) statistics in the form of tables and graphs with accompanying documentation for various locations across Canada.  Current IDF files can be accessed through our station finder application or downloaded for each province and territory across Canada.  In addition, historical versions of IDF files are also available for download.  Updates of IDF files are provided approximately every two years depending on the availability of data.   Thank you for your patience as we enhance our systems.

Hourly Data Report for June 02, 2020

TRENTON A
ONTARIO
Current Station Operator: DND

44°07'00.000" N
77°32'00.000" W
86.30 m
6158875
71621
YTR

Download Data

Hourly Data (June 2020)
Hourly Data Report for June 2, 2020
TIME
LST
Temp Definition
°C
Dew Point Definition
°C
Rel Hum Definition
%
Precip. Amount Definition
mm

Wind Dir Definition
10's deg

Wind Spd Definition
km/h
Visibility Definition
km
Stn Press Definition
kPa
Hmdx Definition


Wind Chill Definition


Weather Definition


00:00 15.2 7.6 60   21 9 24.1 100.61     Mostly Cloudy
01:00 15.3 7.4 59   22 13 24.1 100.58     Mostly Cloudy
02:00 15.4 5.6 52   21 5 24.1 100.52     Cloudy
03:00 15.2 3.9 47   21 9 24.1 100.47     Cloudy
04:00 15.3 5.6 52   21 11 24.1 100.46     Cloudy
05:00 14.9 4.9 51   26 11 24.1 100.48     Cloudy
06:00 15.1 4.1 48   24 9 24.1 100.51     Rain Showers
07:00 14.1 6.9 62   24 8 19.3 100.50     Rain Showers
08:00 15.3 7.6 60   21 8 24.1 100.45     Cloudy
09:00 13.2 7.8 70   21 8 24.1 100.37     Cloudy
10:00 13.4 10.3 82   17 8 24.1 100.33     Cloudy
11:00 14.6 10.2 75   19 11 24.1 100.24     Cloudy
12:00 15.6 10.4 71   20 9 24.1 100.16     Cloudy
13:00 17.1 10.9 67   19 15 24.1 100.02     Cloudy
14:00 16.9 10.6 66   23 15 24.1 99.95     Cloudy
15:00 16.9 9.8 63   19 11 24.1 99.89     Cloudy
16:00 17.0 7.8 55   18 8 24.1 99.85     Cloudy
17:00 18.1 10.5 61   14 9 24.1 99.78     Mostly Cloudy
18:00 18.2 8.5 53   15 4 24.1 99.75     Mostly Cloudy
19:00 17.6 11.2 66   14 4 24.1 99.72     Cloudy
20:00 16.0 10.9 72     0 24.1 99.69     Rain Showers
21:00 15.1 10.7 75   3 13 24.1 99.71     Thunderstorms,Rain Showers
22:00 14.5 13.6 94   11 8 16.1 99.58     Rain Showers
23:00 15.0 14.1 94   11 4 24.1 99.47     Mostly Cloudy

Notes on Data Quality.

Legend

  • E = Estimated
  • M = Missing
  • NA = Not Available*
  • [empty] = Indicates an unobserved value
Date modified: